Location: Bratislava
(48.1500°N, 17.1170°E)
Time: 00:38:48
(UTC+02:00)

ISS - Pass Details

Date: 24 March 2019
Orbit: 408 x 410 km, 51.6° (Epoch: 18 April)

Event Time Altitude Azimuth Distance (km) Brightness Sun altitude
Rises 19:27:06 0° 238° (WSW) 2,330 0.7 -13.5°
Reaches altitude 10° 19:29:11 10° 236° (SW) 1,471 -0.5 -13.8°
Maximum altitude 19:32:27 68° 153° (SSE) 445 -3.9 -14.3°
Enters shadow 19:34:04 27° 77° (ENE) 822 -2.8 -14.6°
